Weather History for PADE - July, 2013

Change the Weather History Date:

Saturday, July 20, 2013

  Actual Average (PAOT) Record (PAOT)
Temperature  
Mean Temperature 56 °F 55 °F  
Max Temperature 61 °F 60 °F 82 °F (1939)
Min Temperature 50 °F 51 °F 37 °F (1899)
Degree Days  
Heating Degree Days 10 10  
Month to date heating degree days 215  
Since 1 June heating degree days 796  
Since 1 July heating degree days 215  
Cooling Degree Days 0    
Month to date cooling degree days  
Year to date cooling degree days  
Since 1 June cooling degree days  
Growing Degree Days 6 (Base 50)    
Moisture  
Dew Point 49 °F    
Average Humidity 78    
Maximum Humidity 94    
Minimum Humidity 62    
Precipitation  
Precipitation 0.05 in 0.05 in 0.35 in (1991)
Month to date precipitation 0.80  
Year to date precipitation 4.05  
Snow  
Snow 0.00 in 0.00 in 0.00 in (2015)
Month to date snowfall 0.0  
Since 1 June snowfall 0.0  
Since 1 July snowfall 0.0  
Snow Depth -    
Sea Level Pressure  
Sea Level Pressure 30.11 in    
Wind  
Wind Speed 6 mph (SSW)    
Max Wind Speed 15 mph    
Max Gust Speed -    
Visibility 10 miles    
Events Rain    
T = Trace of Precipitation, MM = Missing Value Source: NWS Daily Summary

Daily Weather History Graph

Daily Weather History Graph

Search for Another Location

Airport or City:

Trip Planner

Search our weather history database for the weather conditions in past years. The results will help you decide how hot, cold, wet, or windy it might be!

Date:

Astronomy

Jul. 20, 2013 Rise Set
Actual Time 4:49 AM AKDT 1:02 AM AKDT
Civil Twilight Sun does not set Sun does not set
Nautical Twilight Sun does not set Sun does not set
Astronomical Twilight Sun does not set Sun does not set
Moon 10:55 PM AKDT (7/20) 2:53 AM AKDT (7/20)
Length of Visible Light 24h 00m
Length of Day
20h 13m
Waxing Gibbous, 94% of the Moon is Illuminated
Jul 20
Waxing Gibbous
Jul 22
Full
Jul 29
Last Quarter
Aug 6
New
Aug 14
First Quarter

Hourly Weather History & Observations

Time (AKDT) Temp. Dew Point Humidity Pressure Visibility Wind Dir Wind Speed Gust Speed Precip Events Conditions
12:01 AM 53.6 °F 51.8 °F 94% 30.14 in 10.0 mi WNW 3.5 mph - N/A   Overcast
12:53 AM 53.1 °F 51.1 °F 93% 30.14 in 10.0 mi Calm Calm - N/A   Overcast
1:27 AM 53.6 °F 51.8 °F 94% 30.14 in 10.0 mi Calm Calm - N/A   Overcast
1:53 AM 53.1 °F 51.1 °F 93% 30.14 in 10.0 mi Calm Calm - N/A   Overcast
2:53 AM 52.0 °F 48.9 °F 89% 30.14 in 10.0 mi SW 6.9 mph - N/A   Overcast
3:53 AM 52.0 °F 48.9 °F 89% 30.15 in 10.0 mi SSW 6.9 mph - N/A   Overcast
4:53 AM 51.1 °F 46.9 °F 86% 30.15 in 10.0 mi SSW 8.1 mph - N/A   Overcast
5:53 AM 50.0 °F 46.9 °F 89% 30.14 in 10.0 mi South 6.9 mph - N/A   Overcast
6:53 AM 51.1 °F 46.9 °F 86% 30.14 in 10.0 mi SSE 6.9 mph - N/A   Overcast
7:53 AM 51.1 °F 46.9 °F 86% 30.14 in 10.0 mi SSE 5.8 mph - N/A   Mostly Cloudy
8:53 AM 54.0 °F 48.0 °F 80% 30.14 in 10.0 mi South 9.2 mph - N/A   Overcast
9:07 AM 53.6 °F 46.4 °F 77% 30.13 in 10.0 mi South 9.2 mph - N/A   Overcast
9:53 AM 54.0 °F 46.9 °F 77% 30.14 in 10.0 mi South 9.2 mph - N/A   Overcast
10:53 AM 54.0 °F 46.9 °F 77% 30.13 in 10.0 mi South 6.9 mph - N/A   Overcast
11:53 AM 55.9 °F 46.9 °F 72% 30.13 in 10.0 mi South 4.6 mph - N/A   Overcast
12:51 PM 59.0 °F 48.2 °F 67% 30.11 in 10.0 mi SSW 5.8 mph - N/A   Scattered Clouds
12:53 PM 59.0 °F 48.9 °F 69% 30.12 in 10.0 mi SSW 8.1 mph - N/A   Scattered Clouds
2:21 PM 59.0 °F 48.2 °F 67% 30.10 in 10.0 mi South 10.4 mph - N/A   Partly Cloudy
2:53 PM 61.0 °F 48.0 °F 62% 30.10 in 10.0 mi SSW 8.1 mph - N/A   Partly Cloudy
3:53 PM 61.0 °F 48.0 °F 62% 30.09 in 10.0 mi SSW 10.4 mph - N/A   Overcast
4:53 PM 59.0 °F 50.0 °F 72% 30.09 in 10.0 mi SSW 10.4 mph - 0.00 in Rain Light Rain
5:53 PM 59.0 °F 51.1 °F 75% 30.08 in 10.0 mi SSW 11.5 mph - 0.00 in Rain Light Rain
6:53 PM 60.1 °F 48.0 °F 64% 30.07 in 10.0 mi SSW 15.0 mph - 0.00 in   Overcast
7:53 PM 60.1 °F 48.0 °F 64% 30.07 in 10.0 mi SSW 10.4 mph - 0.00 in   Overcast
8:53 PM 60.1 °F 48.0 °F 64% 30.06 in 10.0 mi South 9.2 mph - N/A   Overcast
9:53 PM 57.9 °F 48.9 °F 72% 30.06 in 10.0 mi SSE 9.2 mph - N/A   Overcast
10:53 PM 57.0 °F 48.0 °F 72% 30.06 in 10.0 mi South 8.1 mph - N/A   Overcast
11:53 PM 54.0 °F 48.9 °F 83% 30.06 in 5.0 mi South 6.9 mph - 0.05 in Rain Rain